Карточка аэропорта UHMM

Внимание!
Информация на этой странице в стадии наполнения.
Если вы не увидели какой-то информации, или заметили неточность - пожалуйста сообщите нам!
Спасибо!
Команда RU-STAFF
Название аэропортаСокол
Название аэропорта (англ.)Sokol
Превышение574 ft. (175 m.)
Координаты59°54.648', 150°43.2'
Высота перехода2500m
Эшелон переходаQFE>=744mm: FL100; 744mm>QFE>=717mm: FL110; QFE<717mm: FL120
Коды ответчика6540-6577
Зона ОрВДМагадан РПИ (UHMM)
Данные METARUHMM 041200Z 31002MPS 9999 NSC M11/M18 Q1001 RMK QFE736 R28/00000MPS
Проноз погоды (TAF)UHMM 041050Z 0412/0518 33003G08MPS 9999 SCT040 OVC070 TEMPO 0501/0507 32005MPS
NOTAMshow/hide NOTAM
AWOS   TABLE

Информация о ВПП


Диспетчерские позиции

Позывной Наименование органа УВД Частота
UHMM_APPМагадан-Подход119.3
UHMM_TWRМагадан-Вышка120.8



Спутниковое изображение